Weather reports worldwide

Advertisment
Castellon, Spain (8286): temperature & dewpoint: 15.07.2018 04:00:00 - 21.07.2018 04:00:00 (CEST)Castellon, Spain (8286): wind speed: 15.07.2018 04:00:00 - 21.07.2018 04:00:00 (CEST)Castellon, Spain (8286): wind direction: 15.07.2018 04:00:00 - 21.07.2018 04:00:00 (CEST)Castellon, Spain (8286): reduced air pressure: 15.07.2018 04:00:00 - 21.07.2018 04:00:00 (CEST)Castellon, Spain (8286): visibility: 15.07.2018 04:00:00 - 21.07.2018 04:00:00 (CEST)Castellon, Spain (8286): precipitation: 15.07.2018 04:00:00 - 21.07.2018 04:00:00 (CEST)
Date & Time tt [°C] td [°C] ff [km/h] ff [kn] dd ppp [hPa] vv [km] rr [mm]
21.07.2018 04:00:00 - - - - - - - -
21.07.2018 03:00:00 - - - - - - - -
21.07.2018 02:00:00 - - - - - - - -
21.07.2018 01:00:00 - - - - - - - -
21.07.2018 00:00:00 - - - - - - - -
20.07.2018 23:00:00 - - - - - - - -
20.07.2018 22:00:00 - - - - - - - -
20.07.2018 21:00:00 - - - - - - - -
20.07.2018 20:00:00 - - - - - - - -
20.07.2018 19:00:00 - - - - - - - -
20.07.2018 18:00:00 - - - - - - - -
20.07.2018 17:00:00 - - - - - - - -
20.07.2018 16:00:00 - - - - - - - -
20.07.2018 15:00:00 - - - - - - - -
20.07.2018 14:00:00 - - - - - - - -
20.07.2018 13:00:00 - - - - - - - -
20.07.2018 12:00:00 - - - - - - - -
20.07.2018 11:00:00 - - - - - - - -
20.07.2018 10:00:00 - - - - - - - -
20.07.2018 09:00:00 - - - - - - - -
20.07.2018 08:00:00 - - - - - - - -
20.07.2018 07:00:00 - - - - - - - -
20.07.2018 06:00:00 - - - - - - - -
20.07.2018 05:00:00 - - - - - - - -
20.07.2018 04:00:00 - - - - - - - -
20.07.2018 03:00:00 - - - - - - - -
20.07.2018 02:00:00 - - - - - - - -
20.07.2018 01:00:00 - - - - - - - -
20.07.2018 00:00:00 - - - - - - - -
19.07.2018 23:00:00 - - - - - - - -
19.07.2018 22:00:00 - - - - - - - -
19.07.2018 21:00:00 - - - - - - - -
19.07.2018 20:00:00 - - - - - - - -
19.07.2018 19:00:00 - - - - - - - -
19.07.2018 18:00:00 - - - - - - - -
19.07.2018 17:00:00 - - - - - - - -
19.07.2018 16:00:00 - - - - - - - -
19.07.2018 15:00:00 - - - - - - - -
19.07.2018 14:00:00 - - - - - - - -
19.07.2018 13:00:00 - - - - - - - -
19.07.2018 12:00:00 - - - - - - - -
19.07.2018 11:00:00 - - - - - - - -
19.07.2018 10:00:00 - - - - - - - -
19.07.2018 09:00:00 25,6 20,4 5 3 N 1015,3 17 0,0
19.07.2018 08:00:00 23,0 19,6 4 2 WNW 1015,0 12 -
19.07.2018 07:00:00 22,4 19,0 4 2 NW 1014,5 17 0,0
19.07.2018 06:00:00 22,5 19,5 4 2 NW 1014,3 17 0,0
19.07.2018 05:00:00 22,8 19,4 4 2 NW 1014,3 20 -
19.07.2018 04:00:00 23,5 20,4 4 2 WNW 1014,3 17 0,0
19.07.2018 03:00:00 24,1 20,6 4 2 NW 1014,7 20 0,0
19.07.2018 02:00:00 24,8 21,7 0 0 N 1014,8 20 -
19.07.2018 01:00:00 25,1 22,0 4 2 N 1015,1 20 0,0
19.07.2018 00:00:00 25,4 21,9 4 2 SW 1015,0 20 0,0
18.07.2018 23:00:00 25,8 21,9 8 4 SE 1014,8 20 -
18.07.2018 22:00:00 26,0 21,7 8 4 S 1013,8 20 0,0
18.07.2018 21:00:00 27,2 20,8 8 4 S 1013,7 20 0,0
18.07.2018 20:00:00 28,6 20,3 9 5 S 1013,4 20 -
18.07.2018 19:00:00 30,1 20,6 11 6 SSE 1013,4 20 0,0
18.07.2018 18:00:00 31,2 18,2 11 6 SSE 1013,7 20 0,0
18.07.2018 17:00:00 31,6 18,9 11 6 SSE 1014,0 20 -
18.07.2018 16:00:00 31,0 19,7 15 8 SSE 1014,6 20 0,0
18.07.2018 15:00:00 30,8 19,8 15 8 SE 1014,9 20 0,0
18.07.2018 14:00:00 30,5 20,4 13 7 SE 1015,5 40 -
18.07.2018 13:00:00 29,4 20,3 13 7 ESE 1015,7 20 0,0
18.07.2018 12:00:00 29,8 20,1 11 6 E 1015,9 20 0,0
18.07.2018 11:00:00 29,4 20,5 5 3 E 1015,9 40 -
18.07.2018 10:00:00 26,9 18,5 2 1 SW 1016,0 18 0,0
18.07.2018 09:00:00 24,4 14,5 9 5 WNW 1015,8 19 0,0
18.07.2018 08:00:00 22,4 14,3 8 4 WNW 1015,7 35 -
18.07.2018 07:00:00 21,5 13,9 8 4 WNW 1015,6 20 0,0
18.07.2018 06:00:00 21,6 14,3 5 3 WNW 1015,3 20 0,0
18.07.2018 05:00:00 22,1 15,0 8 4 WNW 1015,4 20 -
18.07.2018 04:00:00 22,9 15,2 9 5 WNW 1015,7 20 0,0
18.07.2018 03:00:00 23,1 15,7 8 4 WNW 1015,7 20 0,0
18.07.2018 02:00:00 23,7 17,2 11 6 WNW 1015,8 20 -
18.07.2018 01:00:00 24,4 19,2 4 2 NW 1016,2 20 0,0
18.07.2018 00:00:00 24,5 20,6 4 2 WSW 1016,5 20 0,0
17.07.2018 23:00:00 25,1 20,6 2 1 SSW 1016,5 20 -
17.07.2018 22:00:00 25,9 19,5 4 2 SE 1016,2 20 0,0
17.07.2018 21:00:00 26,8 19,7 8 4 ESE 1015,9 20 0,0
17.07.2018 20:00:00 28,1 19,3 8 4 SSE 1015,8 20 -
17.07.2018 19:00:00 28,7 18,5 11 6 ESE 1015,6 20 0,0
17.07.2018 18:00:00 29,4 19,1 13 7 ESE 1016,1 20 0,0
17.07.2018 17:00:00 29,6 18,1 11 6 ESE 1016,5 20 -
17.07.2018 16:00:00 30,5 16,5 11 6 SE 1016,7 20 0,0
17.07.2018 15:00:00 30,4 16,8 15 8 ESE 1017,1 20 0,0
17.07.2018 14:00:00 30,6 16,2 13 7 SE 1017,5 40 -
17.07.2018 13:00:00 30,2 16,6 11 6 SE 1018,0 20 0,0
17.07.2018 12:00:00 29,8 16,2 13 7 ESE 1017,9 20 0,0
17.07.2018 11:00:00 30,4 14,9 9 5 SE 1017,8 40 -
17.07.2018 10:00:00 28,9 14,7 9 5 ESE 1017,9 20 0,0
17.07.2018 09:00:00 26,6 11,9 5 3 NW 1017,5 20 0,0
17.07.2018 08:00:00 24,3 11,9 15 8 WNW 1017,2 40 -
17.07.2018 07:00:00 23,1 12,1 13 7 WNW 1017,2 20 0,0
17.07.2018 06:00:00 23,4 12,1 13 7 WNW 1016,9 20 0,0
17.07.2018 05:00:00 24,0 12,3 9 5 WNW 1016,7 20 -
17.07.2018 04:00:00 24,2 12,5 11 6 WNW 1016,8 20 0,0
17.07.2018 03:00:00 24,9 12,5 9 5 WNW 1017,0 20 0,0
17.07.2018 02:00:00 25,7 12,9 11 6 WNW 1017,1 20 -
17.07.2018 01:00:00 26,9 14,3 5 3 W 1017,1 20 0,0
17.07.2018 00:00:00 28,0 13,1 8 4 NNE 1016,9 20 0,0
16.07.2018 23:00:00 27,9 15,9 4 2 NNE 1016,6 20 -
16.07.2018 22:00:00 27,9 17,7 2 1 SSW 1015,6 20 0,0
16.07.2018 21:00:00 29,3 17,2 8 4 S 1014,9 20 0,0
16.07.2018 20:00:00 31,3 16,9 11 6 SSE 1014,3 20 -
16.07.2018 19:00:00 32,1 14,3 9 5 SSE 1013,6 20 0,0
16.07.2018 18:00:00 33,7 13,2 13 7 SE 1013,1 20 0,0
16.07.2018 17:00:00 34,5 12,8 15 8 SSE 1013,2 20 -
16.07.2018 16:00:00 35,1 12,7 11 6 S 1013,1 20 0,0
16.07.2018 15:00:00 33,6 12,6 11 6 SSE 1013,0 20 0,0
16.07.2018 14:00:00 33,4 10,1 11 6 WNW 1013,2 40 -
16.07.2018 13:00:00 33,4 10,1 8 4 NNE 1012,6 20 0,0
16.07.2018 12:00:00 32,7 8,9 8 4 SW 1012,2 20 0,0
16.07.2018 11:00:00 31,0 8,7 15 8 W 1012,0 40 -
16.07.2018 10:00:00 29,3 10,9 5 3 WNW 1012,3 20 0,0
16.07.2018 09:00:00 27,0 10,2 9 5 WNW 1012,2 17 0,0
16.07.2018 08:00:00 23,6 15,6 8 4 WNW 1011,9 18 -
16.07.2018 07:00:00 22,2 19,7 4 2 WNW 1011,3 12 0,0
16.07.2018 06:00:00 22,7 19,5 5 3 NW 1010,7 15 0,0
16.07.2018 05:00:00 23,4 19,5 4 2 WNW 1010,6 10 -
16.07.2018 04:00:00 23,8 19,3 4 2 NNW 1010,8 18 0,0
16.07.2018 03:00:00 24,5 20,4 4 2 WNW 1010,3 16 0,0
16.07.2018 02:00:00 25,1 21,4 4 2 NNW 1011,1 17 -
16.07.2018 01:00:00 25,6 21,9 2 1 N 1011,0 18 0,0
16.07.2018 00:00:00 25,9 22,2 5 3 NE 1011,4 17 0,0
15.07.2018 23:00:00 26,6 21,6 4 2 E 1012,1 20 -
15.07.2018 22:00:00 27,5 20,8 8 4 E 1011,4 20 0,0
15.07.2018 21:00:00 29,2 19,5 5 3 E 1011,2 20 0,0
15.07.2018 20:00:00 29,7 16,8 2 1 NW 1011,1 20 -
15.07.2018 19:00:00 29,9 19,9 9 5 SSE 1011,7 20 0,0
15.07.2018 18:00:00 29,9 20,7 13 7 SE 1012,0 20 0,0
15.07.2018 17:00:00 30,3 22,7 15 8 ESE 1012,1 20 -
15.07.2018 16:00:00 30,4 21,8 13 7 ESE 1012,3 20 0,0
15.07.2018 15:00:00 30,7 21,2 11 6 ESE 1013,0 20 0,0
15.07.2018 14:00:00 30,7 21,5 11 6 ESE 1013,8 20 -
15.07.2018 13:00:00 29,9 22,1 11 6 E 1014,4 20 0,0
15.07.2018 12:00:00 29,8 22,0 11 6 ESE 1014,8 20 0,0
15.07.2018 11:00:00 29,1 22,3 11 6 ESE 1015,0 20 -
15.07.2018 10:00:00 27,9 18,9 4 2 ENE 1015,0 20 0,0
15.07.2018 09:00:00 24,9 18,3 4 2 W 1014,9 20 0,0
15.07.2018 08:00:00 22,3 19,5 5 3 NW 1014,4 18 -
15.07.2018 07:00:00 21,8 18,6 5 3 NW 1014,4 20 0,0
15.07.2018 06:00:00 22,3 18,5 5 3 WNW 1014,0 19 0,0
15.07.2018 05:00:00 22,6 18,6 4 2 WNW 1014,0 20 -
15.07.2018 04:00:00 23,1 18,8 4 2 NW 1014,3 20 0,0

tt = temperature
td = dewpoint
ff = wind speed
dd = wind direction
ppp = reduced air pressure
vv = visibility
rr = precipitation

Next stations